[[{"header":{"parameterUnit":"m.s-1","parameterCategory":2,"la1":30.2991,"la2":30.254,"lo1":-89.0895,"lo2":-89.0444,"dy":0.0017,"dx":0.0017,"nx":28,"ny":28,"refTime":"2025-03-07T09:00:00:Z","depth":"0","parameterNumber":2,"parameterNumberName":"U-component_of_CURRENTS"},"data":[0,0,0,0,0,0,0,0,0,0,0,0,0,0,0,0,0,0,0,0,0,0,0,0,0,0,0,0,0,0,0,0,0,0,0,0,0,0,0,0,0,0,0,0,0,0,0,0,0,0,0,0,0,0,0,0,0,0,0.3287,0.3288,0,0.3363,0.3364,0.3364,0.3361,0.336,0.336,0.3359,0.3389,0.3391,0.3392,0,0,0,0,0,0,0,0,0,0,0,0,0,0.3164,0.3166,0.3287,0.3289,0.329,0.3363,0.3364,0.3365,0.3361,0.336,0.3359,0.3359,0.3389,0.3391,0.3393,0,0,0,0,0,0,0,0,0,0,0,0,0,0.3223,0.3166,0.3287,0.3299,0.3301,0.3363,0.3364,0.3365,0.3362,0.336,0.3359,0.3358,0.3388,0.3391,0.3393,0.343,0,0,0.34,0.3401,0,0,0,0,0,0,0,0,0.322,0.3227,0.3296,0.3299,0.3301,0.3354,0.3332,0.3386,0.3362,0.3335,0.3359,0.3358,0.3376,0.338,0.3393,0.3432,0.3433,0.34,0.3401,0.3402,0.3403,0,0,0,0,0,0,0,0.3216,0.3224,0.3314,0.3298,0.3301,0.331,0.3316,0.3342,0.3358,0.3338,0.3338,0.3352,0.3377,0.339,0.3393,0.3434,0.34,0.3402,0.3403,0.3404,0.3524,0.3525,0,0,0,0,0,0,0.3213,0.3221,0.3312,0.3317,0.326,0.3313,0.332,0.3336,0.3359,0.3363,0.3353,0.3352,0.3387,0.3391,0.3394,0.346,0.3402,0.3405,0.3406,0.3522,0.3524,0.3526,0,0,0,0,0,0,0.321,0.3221,0.3309,0.3272,0.3285,0.3316,0.3334,0.3338,0.3358,0.3372,0.3374,0.337,0.3386,0.3391,0.3433,0.346,0.3406,0.3408,0.352,0.3523,0.3525,0.3577,0,0,0,0,0,0,0.3207,0.3219,0.3229,0.3273,0.3287,0.3353,0.3336,0.334,0.3369,0.3368,0.3387,0.3388,0.3386,0.343,0.3436,0.3462,0.341,0.3518,0.3521,0.3524,0.3574,0.3582,0.3589,0,0,0,0,0,0.3202,0.3219,0.3229,0.324,0.33,0.3355,0.3363,0.3379,0.3371,0.339,0.3406,0.3388,0.3455,0.3434,0.344,0.3467,0.3516,0.352,0.3524,0.357,0.358,0.3588,0,0,0,0,0,0,0.3166,0.3223,0.3234,0.3266,0.3312,0.3356,0.3374,0.3389,0.3418,0.3414,0.3417,0.3421,0.3472,0.3466,0.3443,0.3512,0.348,0.3486,0.3513,0.3523,0.353,0.3597,0.3411,0,0,0,0,0,0.3166,0.3195,0.3251,0.3277,0.3301,0.3341,0.3364,0.3382,0.3415,0.3426,0.3441,0.346,0.3495,0.3504,0.3533,0.357,0.3634,0.3591,0.3598,0.3604,0.3665,0.3778,0.3802,0.3539,0.3539,0.3539,0,0,0.316,0.3195,0.321,0.3272,0.3305,0.3351,0.3351,0.3396,0.3436,0.3426,0.3475,0.3495,0.3516,0.3563,0.3582,0.3557,0.371,0.361,0.3615,0.3673,0.3785,0.3811,0.3834,0.3542,0.3541,0.3541,0,0,0.3167,0.3194,0.3224,0.3267,0.3328,0.336,0.3378,0.3433,0.3458,0.3505,0.3522,0.3576,0.359,0.3641,0.3659,0.3731,0.3756,0.3712,0.3795,0.3902,0.3926,0.3947,0.4052,0.4083,0.3702,0.3702,0.3703,0,0.3155,0.3209,0.3242,0.3285,0.3333,0.3367,0.3423,0.3455,0.3516,0.3566,0.3519,0.364,0.364,0.3758,0.3774,0.3754,0.3817,0.3751,0.3915,0.3938,0.3959,0.4062,0.4095,0.3705,0.3705,0.3705,0.3705,0,0.3191,0.3239,0.3262,0.3332,0.3382,0.3437,0.3496,0.3549,0.3568,0.361,0.3722,0.3747,0.3834,0.382,0.3812,0.397,0.3968,0.392,0.3895,0.399,0.409,0.4124,0.371,0.3709,0.3708,0.3707,0,0,0.3169,0.327,0.3279,0.3345,0.3422,0.3482,0.3551,0.3659,0.3746,0.3774,0.3902,0.395,0.3992,0.4024,0.4037,0.4114,0.4291,0.4082,0.4086,0.4195,0.4547,0.4441,0.4467,0.4266,0.4273,0.4278,0.4553,0,0.3198,0.3306,0.3336,0.3449,0.353,0.3588,0.3663,0.3757,0.3823,0.3946,0.4006,0.4115,0.4058,0.4121,0.4198,0.428,0.4385,0.4223,0.4436,0.4444,0.4344,0.4505,0.431,0.453,0.4586,0.4592,0.4596,0,0.324,0.3318,0.3434,0.3576,0.3612,0.3666,0.3844,0.3915,0.4069,0.4123,0.4246,0.4302,0.4465,0.4376,0.4601,0.4499,0.4559,0.4595,0.4605,0.4527,0.4402,0.4448,0.459,0.4416,0.4648,0.4643,0.464,0,0.3286,0.3398,0.3506,0.355,0.3692,0.3758,0.3831,0.3978,0.407,0.4267,0.436,0.4534,0.4629,0.475,0.4805,0.4738,0.5027,0.4933,0.4913,0.4905,0.4798,0.4769,0.4811,0.5136,0.5135,0.5134,0.5133,0,0.3347,0.3444,0.3535,0.3607,0.3737,0.3813,0.3963,0.4062,0.4217,0.4328,0.4467,0.4591,0.4725,0.4872,0.4922,0.503,0.5131,0.5007,0.4996,0.4804,0.4774,0.4661,0.4584,0.5145,0.5142,0.514,0.5138,0,0.3419,0.3473,0.3612,0.3739,0.3771,0.3875,0.4005,0.4101,0.4256,0.4416,0.4488,0.4687,0.4871,0.5002,0.5195,0.5163,0.5136,0.5289,0.5051,0.5006,0.4772,0.4706,0.47,0.4563,0.5348,0.5347,0.5347,0,0.3484,0.356,0.3689,0.3736,0.3789,0.3914,0.3972,0.4111,0.4186,0.444,0.45,0.4754,0.4878,0.5147,0.5177,0.5318,0.5144,0.5188,0.5018,0.4803,0.4723,0.4546,0.4417,0.491,0.4906,0.4902,0.49,0,0.3608,0.3638,0.3721,0.378,0.3838,0.3913,0.3994,0.4053,0.4192,0.4326,0.4463,0.4604,0.4867,0.4905,0.5089,0.5131,0.4911,0.5121,0.4979,0.4484,0.4223,0.4065,0.4683,0.487,0.4873,0.4875,0.4877,0.4878,0.3678,0.3716,0.3754,0.3802,0.3845,0.3838,0.3843,0.3908,0.3985,0.4096,0.4308,0.4437,0.4616,0.484,0.4854,0.4713,0.4721,0.4566,0.4545,0.4417,0.415,0.4699,0.4794,0.4796,0.4798,0.48,0.4801,0,0.37,0.3702,0.3755,0.3746,0.3716,0.3768,0.3781,0.3728,0.3713,0.3896,0.401,0.4157,0.4235,0.4348,0.4317,0.4155,0.3985,0.4035,0.3749,0.368,0.426,0.4097,0.3941,0.3941,0.3941,0.3941,0.3942,0.3942,0.3715,0.3702,0.3679,0.3585,0.3569,0.3445,0.3416,0.3363,0.3421,0.3441,0.3508,0.3687,0.3875,0.3959,0.3795,0.3712,0.3412,0.3277,0.327,0.3659,0.3705,0.3748,0.3574,0.3312,0.3312,0.2526,0.252,0.2516]},{"header":{"parameterUnit":"m.s-1","parameterCategory":2,"la1":30.2991,"la2":30.254,"lo1":-89.0895,"lo2":-89.0444,"dy":0.0017,"dx":0.0017,"nx":28,"ny":28,"refTime":"2025-03-07T09:00:00:Z","depth":"0","parameterNumber":3,"parameterNumberName":"V-component_of_CURRENTS"},"data":[0,0,0,0,0,0,0,0,0,0,0,0,0,0,0,0,0,0,0,0,0,0,0,0,0,0,0,0,0,0,0,0,0,0,0,0,0,0,0,0,0,0,0,0,0,0,0,0,0,0,0,0,0,0,0,0,0,0,0.0103,0.0103,0,0.0041,0.004,0.0039,-0.0017,-0.0017,-0.0017,-0.0018,-0.0114,-0.0116,-0.0118,0,0,0,0,0,0,0,0,0,0,0,0,0,0.0113,0.0113,0.0103,0.0103,0.0102,0.0041,0.004,0.0039,-0.0017,-0.0017,-0.0018,-0.0018,-0.0113,-0.0116,-0.0118,0,0,0,0,0,0,0,0,0,0,0,0,0,0.0083,0.0113,0.0103,0.0069,0.0066,0.0041,0.004,0.0038,-0.0017,-0.0017,-0.0018,-0.0018,-0.0112,-0.0116,-0.0119,-0.0127,0,0,-0.0129,-0.013,0,0,0,0,0,0,0,0,0.0085,0.0083,0.0075,0.0071,0.0067,0.0021,0.0008,-0.0018,-0.0016,0.0012,-0.0018,-0.0019,-0.007,-0.0076,-0.009,-0.0131,-0.0135,-0.0129,-0.0131,-0.0133,-0.0133,0,0,0,0,0,0,0,0.0087,0.0085,0.0076,0.0074,0.007,0.0036,0.0031,0.0003,-0.0027,0.0009,0.0006,0.0003,-0.0072,-0.0087,-0.0093,-0.0137,-0.0129,-0.0132,-0.0134,-0.0135,-0.0182,-0.0181,0,0,0,0,0,0,0.0104,0.0087,0.0078,0.0074,0.0078,0.0037,0.0031,0.0035,-0.0026,-0.0035,0.0004,0.0001,-0.0081,-0.0089,-0.0096,-0.0076,-0.0132,-0.0136,-0.0137,-0.0183,-0.0182,-0.0181,0,0,0,0,0,0,0.0105,0.0104,0.008,0.0081,0.0076,0.0038,0.0042,0.0034,0.0024,-0.003,-0.004,0.0003,-0.0082,-0.0092,-0.0112,-0.0082,-0.0137,-0.014,-0.0184,-0.0183,-0.0182,-0.0057,0,0,0,0,0,0,0.0106,0.0105,0.011,0.0082,0.0076,0.0082,0.0042,0.0033,0.0024,0.002,-0.0034,-0.0044,-0.0083,-0.0106,-0.0115,-0.0087,-0.0143,-0.0185,-0.0183,-0.0182,-0.0062,-0.0052,-0.0043,0,0,0,0,0,0.0106,0.0126,0.0111,0.0109,0.0086,0.0083,0.0078,0.0046,0.0025,0.0032,-0.0007,-0.0042,-0.0104,-0.0108,-0.0119,-0.0091,-0.0185,-0.0184,-0.0182,-0.0066,-0.0054,-0.0043,0,0,0,0,0,0,0.0138,0.0121,0.0104,0.0119,0.0107,0.0075,0.0076,0.0056,0.0029,0.0021,-0.0033,-0.0045,-0.0052,-0.0092,-0.0095,-0.0103,-0.0151,-0.0151,-0.0059,-0.0048,-0.0038,0.0027,-0.0145,0,0,0,0,0,0.0147,0.0152,0.0134,0.0145,0.0142,0.0109,0.0102,0.0085,0.0059,0.0046,0.001,-0.003,-0.0054,-0.0066,-0.01,-0.0101,-0.0107,-0.0092,-0.0082,-0.0074,-0.0029,-0.0013,0.0004,-0.0176,-0.0176,-0.0176,0,0,0.0162,0.0153,0.0156,0.0151,0.0134,0.015,0.0103,0.0104,0.0121,0.0041,0.0047,0.0001,-0.0049,-0.005,-0.0057,-0.0078,-0.0032,-0.0072,-0.0064,-0.0023,-0.0009,0.0009,0.0025,-0.0175,-0.0175,-0.0175,0,0,0.0203,0.0188,0.0208,0.0206,0.0195,0.018,0.0187,0.0164,0.0158,0.0152,0.0105,0.0094,0.0036,0.003,0.0013,0.0057,0.0016,0.0025,0.0133,0.0148,0.0164,0.0178,0.0178,0.0191,0.0033,0.0034,0.0034,0,0.0221,0.0254,0.0215,0.0238,0.026,0.0203,0.025,0.0229,0.0204,0.023,0.0169,0.015,0.0087,0.0136,0.0133,0.0086,0.0076,0.0096,0.0165,0.0179,0.0192,0.0188,0.0201,0.004,0.0039,0.0039,0.0038,0,0.0279,0.0309,0.0325,0.0339,0.035,0.0382,0.0362,0.0372,0.0348,0.0339,0.0372,0.03,0.0309,0.0264,0.0202,0.0269,0.0226,0.0175,0.0148,0.0219,0.0208,0.022,0.0049,0.0047,0.0045,0.0043,0,0,0.033,0.0364,0.0374,0.0432,0.0421,0.046,0.0482,0.0529,0.0598,0.0535,0.064,0.0554,0.0533,0.0515,0.0449,0.0438,0.0479,0.0345,0.0343,0.0367,0.0507,0.0442,0.0447,0.0437,0.044,0.0442,0.0459,0,0.0403,0.0503,0.0484,0.0597,0.0666,0.064,0.0692,0.0716,0.0715,0.0788,0.0733,0.0782,0.0624,0.0652,0.0615,0.0523,0.0518,0.048,0.0418,0.0417,0.0368,0.0462,0.0422,0.0431,0.047,0.0472,0.0473,0,0.0486,0.0554,0.0686,0.0801,0.0829,0.0879,0.1004,0.1039,0.1085,0.1091,0.1112,0.1067,0.1065,0.092,0.0821,0.08,0.0679,0.0584,0.0581,0.0498,0.0375,0.0367,0.045,0.0206,0.049,0.0489,0.0488,0,0.0618,0.0712,0.0847,0.0878,0.0972,0.1048,0.1097,0.1153,0.1234,0.1314,0.1392,0.1348,0.1367,0.1219,0.0973,0.092,0.0851,0.0758,0.0596,0.0589,0.0536,0.052,0.0403,0.0726,0.0726,0.0726,0.0726,0,0.0743,0.0857,0.0931,0.1017,0.1197,0.1206,0.139,0.1425,0.1521,0.1656,0.158,0.1684,0.1439,0.1346,0.1103,0.0886,0.0954,0.0661,0.0611,0.0572,0.0559,0.0326,0.0195,0.0726,0.0726,0.0726,0.0726,0,0.089,0.0929,0.1102,0.1226,0.1274,0.1414,0.1561,0.168,0.1753,0.1935,0.1984,0.1958,0.1844,0.1569,0.1332,0.1074,0.0725,0.0764,0.0721,0.0666,0.0285,0.0163,0.0045,-0.0043,0.0631,0.063,0.0629,0,0.0987,0.1091,0.126,0.1357,0.1423,0.1599,0.1709,0.1798,0.1916,0.2103,0.2207,0.2184,0.2177,0.1803,0.1347,0.0966,0.0723,0.067,0.0564,0.0302,0.0129,0.0045,-0.0026,0.0533,0.0531,0.053,0.0528,0,0.1168,0.122,0.1343,0.1519,0.1661,0.183,0.1989,0.2124,0.2246,0.2402,0.2567,0.2602,0.2267,0.1869,0.1329,0.1034,0.0502,0.063,0.0386,0.0088,-0.0032,-0.0155,0.0462,0.0516,0.0517,0.0518,0.0519,0.0519,0.1289,0.1388,0.1504,0.1679,0.1834,0.2016,0.2169,0.2335,0.2552,0.2785,0.2799,0.2876,0.2289,0.1565,0.1165,0.0368,0.042,0.0126,0.0015,-0.0034,-0.0161,0.0424,0.0394,0.0395,0.0395,0.0396,0.0396,0,0.1383,0.1464,0.1636,0.1822,0.1984,0.205,0.2309,0.2467,0.2716,0.2927,0.3064,0.2769,0.2085,0.1371,0.0312,-0.0175,-0.0343,-0.0439,-0.0576,-0.0607,-0.0064,-0.0115,-0.0289,-0.0288,-0.0288,-0.0288,-0.0288,-0.0287,0.143,0.156,0.1629,0.1884,0.2023,0.2244,0.2398,0.2651,0.2848,0.3061,0.3072,0.306,0.2369,0.0635,-0.0516,-0.0754,-0.1073,-0.1149,-0.1266,-0.0946,-0.0902,-0.0861,-0.094,-0.1284,-0.1285,-0.1762,-0.1768,-0.1772]}],[{"header":{"parameterUnit":"m.s-1","parameterCategory":2,"la1":30.2991,"la2":30.254,"lo1":-89.0895,"lo2":-89.0444,"dy":0.0017,"dx":0.0017,"nx":28,"ny":28,"refTime":"2025-03-07T09:00:00:Z","depth":"2","parameterNumber":2,"parameterNumberName":"U-component_of_CURRENTS"},"data":[0,0,0,0,0,0,0,0,0,0,0,0,0,0,0,0,0,0,0,0,0,0,0,0,0,0,0,0,0,0,0,0,0,0,0,0,0,0,0,0,0,0,0,0,0,0,0,0,0,0,0,0,0,0,0,0,0,0,0.2587,0.2588,0,0.2634,0.2634,0.2635,0.264,0.264,0.264,0.264,0.2715,0.2717,0.2719,0,0,0,0,0,0,0,0,0,0,0,0,0,0.2475,0.2477,0.2587,0.2588,0.2589,0.2634,0.2634,0.2635,0.264,0.264,0.264,0.264,0.2714,0.2717,0.2719,0,0,0,0,0,0,0,0,0,0,0,0,0,0.2518,0.2477,0.2587,0.2601,0.2603,0.2634,0.2634,0.2635,0.264,0.264,0.264,0.264,0.2714,0.2717,0.272,0.274,0,0,0.2729,0.273,0,0,0,0,0,0,0,0,0.2516,0.2522,0.2598,0.26,0.2602,0.2635,0.2623,0.2673,0.264,0.2621,0.264,0.264,0.2694,0.2699,0.2701,0.2743,0.2746,0.2729,0.2731,0.2732,0.2733,0,0,0,0,0,0,0,0.2513,0.252,0.2601,0.2599,0.2602,0.2596,0.2601,0.2631,0.2654,0.2623,0.2624,0.2637,0.2695,0.2698,0.2703,0.2747,0.2729,0.2732,0.2734,0.2735,0.2868,0.287,0,0,0,0,0,0,0.2519,0.2517,0.26,0.2603,0.2563,0.2598,0.2604,0.2621,0.2653,0.2659,0.2637,0.2637,0.2692,0.2699,0.2705,0.2799,0.2732,0.2735,0.2737,0.2867,0.2869,0.287,0,0,0,0,0,0,0.2516,0.2526,0.2598,0.2564,0.2574,0.2601,0.2619,0.2622,0.2646,0.2665,0.267,0.266,0.2693,0.2701,0.2749,0.28,0.2737,0.2739,0.2865,0.2867,0.287,0.2943,0,0,0,0,0,0,0.2513,0.2524,0.2538,0.2565,0.2576,0.2633,0.262,0.2623,0.2655,0.2656,0.2687,0.2692,0.2693,0.2744,0.2752,0.2803,0.2742,0.2862,0.2866,0.2869,0.2939,0.2948,0.2956,0,0,0,0,0,0.2508,0.2529,0.2538,0.2549,0.2594,0.2634,0.2639,0.2654,0.2656,0.2673,0.2692,0.2692,0.277,0.2748,0.2756,0.281,0.2861,0.2865,0.2868,0.2935,0.2946,0.2956,0,0,0,0,0,0,0.2492,0.2533,0.2543,0.2577,0.2612,0.2637,0.2655,0.2669,0.2696,0.2701,0.2712,0.272,0.278,0.2783,0.2758,0.2856,0.2817,0.2823,0.2864,0.2875,0.2884,0.2887,0.2744,0,0,0,0,0,0.2496,0.2521,0.256,0.2591,0.2608,0.2636,0.2655,0.2671,0.2699,0.2711,0.2732,0.2761,0.2799,0.2827,0.285,0.2907,0.2934,0.2947,0.2955,0.2963,0.2971,0.3073,0.3092,0.2883,0.2883,0.2883,0,0,0.2491,0.2526,0.2535,0.2589,0.2613,0.265,0.2647,0.2687,0.2728,0.2717,0.2773,0.279,0.2819,0.2878,0.2906,0.2891,0.3034,0.2968,0.2974,0.2978,0.3079,0.31,0.3118,0.2886,0.2885,0.2885,0,0,0.2504,0.2535,0.2557,0.2592,0.2646,0.267,0.269,0.2729,0.2757,0.2808,0.2818,0.2864,0.2912,0.2949,0.2973,0.3046,0.3071,0.306,0.3119,0.3218,0.3237,0.3254,0.3303,0.3324,0.3072,0.3072,0.3072,0,0.2495,0.2544,0.2571,0.2611,0.2653,0.2685,0.273,0.2763,0.2815,0.2859,0.2834,0.2939,0.2946,0.3053,0.3065,0.3068,0.3116,0.3078,0.3232,0.3249,0.3265,0.3312,0.3334,0.3076,0.3076,0.3075,0.3075,0,0.2531,0.2571,0.2594,0.2657,0.2702,0.275,0.2806,0.2855,0.2889,0.2926,0.3025,0.3041,0.3115,0.3121,0.3109,0.3239,0.3232,0.3228,0.3208,0.3291,0.3334,0.3356,0.3082,0.3081,0.3079,0.3078,0,0,0.2501,0.2597,0.2603,0.2654,0.2738,0.2783,0.2864,0.2957,0.3035,0.3072,0.3188,0.322,0.3245,0.3273,0.3288,0.335,0.3476,0.3338,0.3341,0.339,0.3684,0.3552,0.3562,0.3518,0.3522,0.3526,0.3665,0,0.2522,0.2613,0.2654,0.2744,0.2804,0.2869,0.2958,0.3047,0.311,0.3224,0.3277,0.3373,0.3306,0.3363,0.342,0.3472,0.3539,0.3437,0.3593,0.3596,0.3474,0.3585,0.3296,0.3386,0.3686,0.369,0.3692,0,0.2545,0.2615,0.2717,0.2837,0.2868,0.2926,0.3089,0.3169,0.3322,0.3385,0.3485,0.3526,0.3637,0.3569,0.3703,0.3653,0.3676,0.369,0.3697,0.3564,0.3505,0.3354,0.3413,0.3728,0.3725,0.3722,0.372,0,0.2549,0.2651,0.275,0.2791,0.2934,0.3,0.3075,0.3221,0.3307,0.3503,0.3593,0.3717,0.3817,0.3866,0.3864,0.3821,0.4,0.3953,0.3855,0.3844,0.3619,0.358,0.4065,0.4065,0.4065,0.4064,0.4064,0,0.2579,0.2645,0.2763,0.2816,0.2938,0.3036,0.317,0.327,0.3433,0.3552,0.3685,0.3782,0.3902,0.3991,0.3964,0.3972,0.4093,0.3887,0.389,0.3631,0.3594,0.3899,0.3878,0.4069,0.4068,0.4067,0.4066,0,0.2583,0.2663,0.2752,0.2889,0.2945,0.3028,0.3176,0.3262,0.3451,0.3618,0.3692,0.3886,0.4,0.4071,0.4174,0.4103,0.4114,0.4086,0.3745,0.3703,0.3863,0.3844,0.4005,0.4002,0.3999,0.3997,0.3995,0,0.2596,0.2667,0.2777,0.2822,0.2881,0.3013,0.3101,0.3261,0.3348,0.3629,0.3702,0.39,0.3955,0.4069,0.4027,0.4015,0.4088,0.3736,0.3581,0.3879,0.3867,0.3852,0.3837,0.3314,0.3307,0.3301,0.3296,0,0.2629,0.2665,0.2712,0.2783,0.2854,0.2959,0.3085,0.3129,0.3344,0.3476,0.3612,0.3672,0.3829,0.3687,0.373,0.366,0.3708,0.3611,0.4083,0.3354,0.3234,0.3219,0.3227,0.3243,0.3248,0.3252,0.3255,0.3257,0.2604,0.2599,0.2643,0.27,0.2796,0.2866,0.2881,0.298,0.3063,0.3183,0.3343,0.3357,0.3433,0.3306,0.3215,0.3185,0.3407,0.3253,0.3269,0.3293,0.3168,0.3049,0.2998,0.3002,0.3005,0.3008,0.301,0,0.2513,0.2524,0.2571,0.2584,0.2623,0.2773,0.2854,0.2773,0.2762,0.2911,0.2956,0.2724,0.2662,0.276,0.263,0.2624,0.2583,0.2522,0.2454,0.2509,0.2558,0.2393,0.2019,0.2015,0.2012,0.2009,0,0,0.2453,0.2398,0.24,0.2407,0.2488,0.2502,0.2526,0.2414,0.2425,0.2309,0.2342,0.251,0.2662,0.2294,0.2262,0.2127,0.2292,0.2042,0.2844,0.2819,0.2863,0.2994,0.2805,0,0,0,0,0]},{"header":{"parameterUnit":"m.s-1","parameterCategory":2,"la1":30.2991,"la2":30.254,"lo1":-89.0895,"lo2":-89.0444,"dy":0.0017,"dx":0.0017,"nx":28,"ny":28,"refTime":"2025-03-07T09:00:00:Z","depth":"2","parameterNumber":3,"parameterNumberName":"V-component_of_CURRENTS"},"data":[0,0,0,0,0,0,0,0,0,0,0,0,0,0,0,0,0,0,0,0,0,0,0,0,0,0,0,0,0,0,0,0,0,0,0,0,0,0,0,0,0,0,0,0,0,0,0,0,0,0,0,0,0,0,0,0,0,0,-0.0048,-0.0048,0,-0.0093,-0.0094,-0.0094,-0.0136,-0.0136,-0.0136,-0.0137,-0.0223,-0.0225,-0.0227,0,0,0,0,0,0,0,0,0,0,0,0,0,-0.0043,-0.0042,-0.0048,-0.0048,-0.0049,-0.0093,-0.0094,-0.0094,-0.0136,-0.0136,-0.0137,-0.0137,-0.0222,-0.0225,-0.0227,0,0,0,0,0,0,0,0,0,0,0,0,0,-0.0063,-0.0042,-0.0048,-0.0074,-0.0077,-0.0093,-0.0094,-0.0094,-0.0135,-0.0136,-0.0137,-0.0137,-0.0222,-0.0224,-0.0227,-0.0232,0,0,-0.0236,-0.0237,0,0,0,0,0,0,0,0,-0.0062,-0.0063,-0.007,-0.0072,-0.0075,-0.0109,-0.0123,-0.0142,-0.0135,-0.0114,-0.0137,-0.0138,-0.0188,-0.0193,-0.0201,-0.0236,-0.024,-0.0236,-0.0238,-0.0239,-0.024,0,0,0,0,0,0,0,-0.006,-0.0062,-0.0067,-0.007,-0.0074,-0.0099,-0.0102,-0.0127,-0.0148,-0.0116,-0.0119,-0.0122,-0.019,-0.0198,-0.0203,-0.0241,-0.0236,-0.0239,-0.024,-0.0242,-0.0285,-0.0284,0,0,0,0,0,0,-0.005,-0.006,-0.0065,-0.0068,-0.0069,-0.0098,-0.0102,-0.0098,-0.0147,-0.0155,-0.0122,-0.0124,-0.0193,-0.02,-0.0207,-0.0203,-0.0239,-0.0242,-0.0243,-0.0285,-0.0284,-0.0284,0,0,0,0,0,0,-0.0049,-0.0049,-0.0063,-0.0065,-0.0068,-0.0097,-0.0093,-0.0099,-0.0107,-0.0151,-0.0159,-0.0124,-0.0194,-0.0203,-0.0221,-0.0207,-0.0243,-0.0246,-0.0286,-0.0285,-0.0284,-0.0203,0,0,0,0,0,0,-0.0049,-0.0049,-0.0044,-0.0064,-0.0068,-0.0062,-0.0092,-0.0099,-0.0107,-0.0111,-0.0155,-0.0164,-0.0195,-0.0217,-0.0224,-0.0212,-0.0248,-0.0286,-0.0285,-0.0284,-0.0207,-0.02,-0.0194,0,0,0,0,0,-0.0048,-0.0031,-0.0043,-0.0044,-0.0059,-0.0061,-0.0065,-0.009,-0.0107,-0.0101,-0.0133,-0.0163,-0.0216,-0.0218,-0.0227,-0.0215,-0.0287,-0.0286,-0.0284,-0.021,-0.0201,-0.0194,0,0,0,0,0,0,-0.0023,-0.0034,-0.0048,-0.0034,-0.0045,-0.0068,-0.0066,-0.0084,-0.0104,-0.011,-0.0155,-0.0165,-0.0179,-0.0207,-0.0209,-0.0225,-0.0256,-0.0257,-0.0197,-0.0189,-0.0183,-0.0159,-0.025,0,0,0,0,0,-0.0015,-0.0008,-0.0023,-0.0014,-0.0016,-0.0042,-0.0047,-0.0061,-0.0081,-0.0091,-0.0123,-0.0155,-0.018,-0.0192,-0.022,-0.0225,-0.0255,-0.0224,-0.0218,-0.0212,-0.0199,-0.0222,-0.0217,-0.028,-0.028,-0.028,0,0,-0.0005,-0.0009,-0.0006,-0.0009,-0.0021,-0.001,-0.0046,-0.0046,-0.0037,-0.0098,-0.0098,-0.0137,-0.0178,-0.0185,-0.0193,-0.0206,-0.0213,-0.0211,-0.0205,-0.0195,-0.022,-0.0214,-0.0209,-0.0279,-0.0279,-0.0279,0,0,0.0028,0.0019,0.0037,0.0035,0.0026,0.0014,0.0018,-0.0001,-0.0009,-0.0016,-0.0057,-0.0079,-0.012,-0.0139,-0.0155,-0.013,-0.0181,-0.0147,-0.0091,-0.0113,-0.0108,-0.0104,-0.0143,-0.0143,-0.0139,-0.0139,-0.0139,0,0.0041,0.0065,0.0042,0.0061,0.007,0.0031,0.0059,0.0046,0.0023,0.0025,-0.0006,-0.0051,-0.0093,-0.009,-0.0088,-0.0113,-0.0144,-0.0115,-0.0103,-0.01,-0.0097,-0.0139,-0.0139,-0.0135,-0.0135,-0.0136,-0.0136,0,0.0087,0.0107,0.012,0.0133,0.0137,0.0155,0.0139,0.0141,0.0119,0.0102,0.0094,0.0041,0.0018,-0.0004,-0.0043,-0.0037,-0.0073,-0.0095,-0.0119,-0.0085,-0.0132,-0.0134,-0.0129,-0.0131,-0.0132,-0.0133,0,0,0.0121,0.0149,0.0155,0.0182,0.0181,0.0196,0.0213,0.0225,0.0249,0.0205,0.0233,0.0173,0.0138,0.0117,0.0069,0.0043,0.0022,-0.0015,-0.0018,-0.0047,-0.0043,-0.009,-0.0098,-0.0001,-0.0,0.0,-0.0088,0,0.0167,0.0231,0.0226,0.0287,0.0322,0.0303,0.0332,0.0333,0.0316,0.0329,0.0274,0.0273,0.0187,0.0184,0.0142,0.0059,0.0022,0.0048,-0.0078,-0.0082,-0.012,-0.0099,-0.007,-0.0148,-0.0091,-0.0092,-0.0092,0,0.0216,0.0259,0.0332,0.0389,0.0403,0.0428,0.0474,0.0496,0.0492,0.0484,0.0459,0.0406,0.0366,0.0292,0.0166,0.0184,0.0077,0.0002,-0.0004,-0.0073,-0.0131,-0.0172,-0.0155,-0.0096,-0.0096,-0.0096,-0.0095,0,0.0264,0.0332,0.0401,0.0419,0.0473,0.0504,0.053,0.0542,0.0569,0.0587,0.0606,0.0535,0.0521,0.0384,0.0207,0.0189,0.0061,0.002,-0.0125,-0.0131,-0.0142,-0.0149,-0.0069,-0.0069,-0.0068,-0.0068,-0.0068,0,0.0318,0.0371,0.0434,0.047,0.0556,0.0575,0.065,0.0666,0.0697,0.0751,0.0693,0.0705,0.0544,0.0438,0.0257,0.006,0.0095,-0.011,-0.0149,-0.0116,-0.0119,-0.0101,-0.0104,-0.0071,-0.0071,-0.007,-0.0069,0,0.0346,0.039,0.0469,0.0547,0.0577,0.0636,0.0707,0.0748,0.08,0.0871,0.0886,0.0832,0.0718,0.0527,0.0319,0.0142,-0.0049,-0.0132,-0.0093,-0.0126,-0.0243,-0.0241,-0.0296,-0.0299,-0.0301,-0.0302,-0.0303,0,0.0363,0.0412,0.0513,0.0552,0.0583,0.0672,0.072,0.0784,0.0839,0.0938,0.0972,0.0909,0.0863,0.0543,0.025,-0.0044,-0.0076,-0.0228,-0.0258,-0.023,-0.0263,-0.0258,-0.0253,-0.025,-0.0251,-0.0251,-0.0252,0,0.0383,0.0417,0.0474,0.0573,0.063,0.0715,0.0803,0.0873,0.0982,0.1078,0.1164,0.1143,0.0863,0.0585,0.0195,-0.0018,-0.0177,-0.0252,-0.0214,-0.0197,-0.0194,-0.0224,-0.0219,-0.0258,-0.0257,-0.0257,-0.0256,-0.0256,0.0382,0.0415,0.0493,0.0589,0.0657,0.0769,0.0868,0.0989,0.1143,0.133,0.1273,0.129,0.0951,0.0469,0.0115,-0.0231,-0.0228,-0.0357,-0.0352,-0.0347,-0.0326,-0.0326,-0.0412,-0.0412,-0.0412,-0.0413,-0.0413,0,0.0389,0.0423,0.0501,0.0629,0.0726,0.0752,0.0929,0.107,0.1299,0.1425,0.1515,0.1217,0.0887,0.0522,0.0003,-0.0339,-0.035,-0.0438,-0.0368,-0.0361,-0.0355,-0.0332,-0.0421,-0.0422,-0.0422,-0.0423,0,0,0.0387,0.0455,0.0513,0.0682,0.0758,0.0915,0.1028,0.1248,0.1412,0.1578,0.16,0.1501,0.1027,0.065,0.0191,-0.0095,-0.0145,-0.0159,-0.012,0.0024,0.0035,-0.0284,-0.0238,0,0,0,0,0]}],[{"header":{"parameterUnit":"m.s-1","parameterCategory":2,"la1":30.2991,"la2":30.254,"lo1":-89.0895,"lo2":-89.0444,"dy":0.0017,"dx":0.0017,"nx":28,"ny":28,"refTime":"2025-03-07T09:00:00:Z","depth":"4","parameterNumber":2,"parameterNumberName":"U-component_of_CURRENTS"},"data":[0,0,0,0,0,0,0,0,0,0,0,0,0,0,0,0,0,0,0,0,0,0,0,0,0,0,0,0,0,0,0,0,0,0,0,0,0,0,0,0,0,0,0,0,0,0,0,0,0,0,0,0,0,0,0,0,0,0,0.1537,0.1538,0,0.1605,0.1606,0.1606,0.1666,0.1667,0.1668,0.1669,0.1747,0.1748,0.1749,0,0,0,0,0,0,0,0,0,0,0,0,0,0.1466,0.1467,0.1537,0.1538,0.1538,0.1605,0.1606,0.1606,0.1666,0.1667,0.1668,0.1669,0.1746,0.1748,0.175,0,0,0,0,0,0,0,0,0,0,0,0,0,0.1511,0.1467,0.1537,0.1576,0.1581,0.1604,0.1606,0.1607,0.1666,0.1667,0.1668,0.1669,0.1746,0.1748,0.175,0.1742,0,0,0.1756,0.1757,0,0,0,0,0,0,0,0,0.1509,0.1514,0.157,0.1574,0.1578,0.1628,0.1609,0.1653,0.1666,0.1634,0.1669,0.167,0.1707,0.1713,0.1723,0.1746,0.1749,0.1757,0.1758,0.1759,0.1759,0,0,0,0,0,0,0,0.1506,0.1511,0.1564,0.157,0.1576,0.1593,0.1601,0.1618,0.1664,0.1637,0.1641,0.1648,0.171,0.1721,0.1725,0.175,0.1757,0.1758,0.176,0.1761,0.1884,0.1886,0,0,0,0,0,0,0.1496,0.1508,0.1562,0.1566,0.1545,0.1593,0.1602,0.1611,0.1664,0.1673,0.1647,0.1651,0.1716,0.1723,0.1728,0.1811,0.1759,0.1761,0.1762,0.1882,0.1884,0.1887,0,0,0,0,0,0,0.1494,0.15,0.1559,0.1538,0.1547,0.1594,0.1603,0.1612,0.1658,0.1672,0.1681,0.1688,0.1718,0.1725,0.1776,0.1811,0.1762,0.1764,0.188,0.1883,0.1885,0.1919,0,0,0,0,0,0,0.1492,0.1499,0.1518,0.1538,0.1548,0.1589,0.1603,0.1613,0.1658,0.1664,0.1709,0.1715,0.1719,0.1773,0.1779,0.1813,0.1765,0.1877,0.1881,0.1885,0.1915,0.1922,0.1929,0,0,0,0,0,0.1489,0.15,0.1519,0.1526,0.1568,0.1589,0.1597,0.1632,0.1659,0.1679,0.1718,0.1716,0.1801,0.1776,0.1782,0.1818,0.1875,0.188,0.1884,0.1912,0.1921,0.1929,0,0,0,0,0,0,0.1475,0.1508,0.1529,0.155,0.1578,0.16,0.1627,0.1651,0.1697,0.1717,0.1734,0.1743,0.1805,0.1809,0.1781,0.1867,0.1841,0.1846,0.186,0.1868,0.1875,0.1897,0.1767,0,0,0,0,0,0.1481,0.1506,0.1532,0.1555,0.1573,0.1609,0.163,0.1654,0.1688,0.1712,0.1742,0.1782,0.1822,0.1843,0.1873,0.1912,0.1931,0.1943,0.195,0.1956,0.198,0.2051,0.2066,0.1901,0.1901,0.1901,0,0,0.1485,0.1505,0.1523,0.1555,0.1586,0.1615,0.1626,0.1665,0.1701,0.1711,0.178,0.1809,0.184,0.1891,0.1918,0.19,0.2006,0.1961,0.1966,0.1988,0.2057,0.2073,0.2088,0.1904,0.1904,0.1903,0,0,0.1491,0.1524,0.1547,0.1573,0.1618,0.1639,0.1657,0.1699,0.1735,0.1788,0.1817,0.1871,0.1918,0.1951,0.1973,0.2037,0.2044,0.205,0.2097,0.2165,0.2179,0.2192,0.2202,0.2216,0.2048,0.2048,0.2048,0,0.15,0.1527,0.1556,0.1582,0.1615,0.1654,0.1688,0.1724,0.1778,0.1822,0.1818,0.1939,0.1949,0.2037,0.2055,0.2053,0.208,0.2057,0.2174,0.2187,0.22,0.2207,0.2222,0.205,0.205,0.205,0.205,0,0.1512,0.1551,0.1567,0.162,0.1655,0.1691,0.174,0.1792,0.184,0.1878,0.1982,0.2009,0.2087,0.2092,0.2089,0.2193,0.2177,0.2175,0.2148,0.2218,0.2221,0.2236,0.2053,0.2053,0.2052,0.2052,0,0,0.1494,0.1564,0.1576,0.1613,0.1684,0.171,0.1787,0.1865,0.1932,0.1993,0.2086,0.2149,0.2187,0.2217,0.2232,0.2278,0.2356,0.2267,0.227,0.2269,0.2482,0.2318,0.2317,0.2385,0.2389,0.2392,0.2435,0,0.1505,0.1551,0.1594,0.1663,0.1696,0.1771,0.1839,0.192,0.1987,0.208,0.2151,0.2237,0.2229,0.2274,0.2329,0.2368,0.2404,0.2343,0.2423,0.2425,0.2265,0.2333,0.2403,0.2445,0.2449,0.2451,0.2453,0,0.1504,0.1537,0.1597,0.1696,0.1723,0.178,0.1911,0.1979,0.2114,0.217,0.2282,0.2336,0.2446,0.241,0.2533,0.2503,0.2504,0.251,0.2512,0.2365,0.229,0.2373,0.2479,0.2477,0.2475,0.2473,0.2472,0,0.1458,0.1547,0.1597,0.1628,0.1738,0.1808,0.189,0.202,0.2084,0.2247,0.2302,0.245,0.2512,0.2591,0.2611,0.2594,0.2709,0.2682,0.2529,0.2515,0.2633,0.2619,0.2757,0.2757,0.2757,0.2757,0.2757,0,0.1433,0.1479,0.1589,0.161,0.1688,0.1801,0.1903,0.2,0.2146,0.2218,0.2358,0.2419,0.2565,0.2637,0.266,0.2639,0.2758,0.2555,0.2533,0.2639,0.2626,0.264,0.2626,0.2759,0.2758,0.2758,0.2758,0,0.1362,0.1434,0.149,0.1617,0.1659,0.1724,0.1875,0.1934,0.2104,0.2203,0.2261,0.2421,0.2525,0.2623,0.2722,0.2658,0.2679,0.2628,0.2718,0.2698,0.2421,0.2408,0.2477,0.2472,0.2468,0.2464,0.2461,0,0.1315,0.134,0.1459,0.1473,0.1532,0.164,0.1691,0.188,0.194,0.2171,0.2194,0.2356,0.2443,0.2464,0.2578,0.2627,0.2589,0.2563,0.2511,0.2429,0.2402,0.2395,0.2389,0.2454,0.2453,0.2452,0.2451,0,0.1201,0.1265,0.1301,0.1348,0.1401,0.1453,0.1565,0.16,0.1819,0.198,0.209,0.2175,0.2268,0.2363,0.2408,0.2437,0.2579,0.2518,0.2526,0.2477,0.2402,0.2378,0.2376,0.2436,0.2438,0.244,0.244,0,0.1104,0.1105,0.1157,0.12,0.1246,0.1263,0.1346,0.1443,0.1549,0.1837,0.186,0.2062,0.2233,0.2261,0.2313,0.2334,0.23,0.2217,0.224,0.2258,0.217,0.2043,0.1963,0,0,0,0,0,0.0983,0.0972,0.0993,0.1029,0.1078,0.1124,0.1245,0.1344,0.1565,0.1591,0.1741,0.1839,0.1955,0.2054,0.2034,0.2192,0.2283,0.2154,0.2192,0.2354,0.2371,0.229,0,0,0,0,0,0,0.0893,0.089,0.0936,0.088,0.0892,0.0936,0.1017,0.1164,0.1212,0.1451,0.1528,0.1715,0.1851,0.1954,0.1996,0.2025,0.2007,0.229,0.2285,0.2344,0.236,0.2374,0.2296,0,0,0,0,0]},{"header":{"parameterUnit":"m.s-1","parameterCategory":2,"la1":30.2991,"la2":30.254,"lo1":-89.0895,"lo2":-89.0444,"dy":0.0017,"dx":0.0017,"nx":28,"ny":28,"refTime":"2025-03-07T09:00:00:Z","depth":"4","parameterNumber":3,"parameterNumberName":"V-component_of_CURRENTS"},"data":[0,0,0,0,0,0,0,0,0,0,0,0,0,0,0,0,0,0,0,0,0,0,0,0,0,0,0,0,0,0,0,0,0,0,0,0,0,0,0,0,0,0,0,0,0,0,0,0,0,0,0,0,0,0,0,0,0,0,0.0011,0.001,0,-0.0017,-0.0017,-0.0018,-0.0048,-0.0048,-0.0049,-0.0049,-0.0101,-0.0102,-0.0103,0,0,0,0,0,0,0,0,0,0,0,0,0,0.0005,0.0005,0.0011,0.001,0.001,-0.0017,-0.0017,-0.0018,-0.0048,-0.0048,-0.0049,-0.0049,-0.01,-0.0102,-0.0103,0,0,0,0,0,0,0,0,0,0,0,0,0,-0.0006,0.0005,0.0011,-0.0007,-0.0009,-0.0017,-0.0017,-0.0018,-0.0048,-0.0048,-0.0049,-0.0049,-0.01,-0.0101,-0.0103,-0.0102,0,0,-0.0108,-0.0109,0,0,0,0,0,0,0,0,-0.0005,-0.0006,-0.0004,-0.0006,-0.0008,-0.0029,-0.0039,-0.0047,-0.0048,-0.0034,-0.0049,-0.005,-0.0078,-0.0081,-0.0086,-0.0105,-0.0107,-0.0108,-0.0109,-0.011,-0.011,0,0,0,0,0,0,0,-0.0004,-0.0005,-0.0001,-0.0005,-0.0007,-0.0025,-0.0027,-0.004,-0.0054,-0.0035,-0.0037,-0.0039,-0.0079,-0.0085,-0.0088,-0.0108,-0.0108,-0.0109,-0.011,-0.0111,-0.0139,-0.0139,0,0,0,0,0,0,0.0004,-0.0004,-0.0,-0.0002,-0.0007,-0.0025,-0.0027,-0.0022,-0.0053,-0.0058,-0.0038,-0.004,-0.0082,-0.0086,-0.009,-0.0087,-0.011,-0.0111,-0.0112,-0.014,-0.0139,-0.0139,0,0,0,0,0,0,0.0004,0.0004,0.0001,-0.0003,-0.0005,-0.0024,-0.0019,-0.0023,-0.0029,-0.0055,-0.0061,-0.004,-0.0082,-0.0088,-0.0098,-0.009,-0.0112,-0.0113,-0.014,-0.0139,-0.0139,-0.0084,0,0,0,0,0,0,0.0004,0.0005,0.0009,-0.0002,-0.0004,0.0004,-0.0018,-0.0023,-0.0028,-0.0031,-0.0059,-0.0064,-0.0083,-0.0096,-0.01,-0.0092,-0.0115,-0.014,-0.014,-0.0139,-0.0086,-0.0082,-0.0079,0,0,0,0,0,0.0004,0.0018,0.001,0.001,0.0003,0.0005,0.0002,-0.0014,-0.0028,-0.0024,-0.0045,-0.0063,-0.0097,-0.0096,-0.0101,-0.0094,-0.014,-0.014,-0.0139,-0.0088,-0.0083,-0.0079,0,0,0,0,0,0,0.0019,0.0016,0.0007,0.0019,0.0014,0.0,0.0002,-0.0011,-0.0024,-0.0029,-0.0058,-0.0064,-0.0072,-0.0091,-0.009,-0.0103,-0.0123,-0.0123,-0.0082,-0.0077,-0.0074,-0.0073,-0.0116,0,0,0,0,0,0.0025,0.0033,0.0025,0.0034,0.0033,0.0017,0.0014,0.0004,-0.0008,-0.0015,-0.0034,-0.0057,-0.0074,-0.0081,-0.0099,-0.0101,-0.0138,-0.0102,-0.0098,-0.0095,-0.0098,-0.0142,-0.0143,-0.0138,-0.0138,-0.0138,0,0,0.0031,0.0032,0.0035,0.0037,0.003,0.0038,0.0014,0.0015,0.0021,-0.0018,-0.0018,-0.0044,-0.0072,-0.0077,-0.0082,-0.0091,-0.0116,-0.0094,-0.0091,-0.0096,-0.0142,-0.0142,-0.0143,-0.0137,-0.0137,-0.0137,0,0,0.0054,0.0051,0.0065,0.0066,0.0063,0.0055,0.0058,0.0047,0.004,0.0039,0.0008,-0.0012,-0.0031,-0.0052,-0.0065,-0.0051,-0.0095,-0.0056,-0.0032,-0.0074,-0.0075,-0.0076,-0.0125,-0.0131,-0.0052,-0.0051,-0.0051,0,0.0062,0.0081,0.0069,0.0085,0.0089,0.0066,0.0082,0.0076,0.0063,0.0056,0.0046,0.0002,-0.002,-0.0037,-0.0031,-0.0042,-0.0077,-0.0044,-0.0069,-0.0071,-0.0073,-0.0123,-0.013,-0.0049,-0.0049,-0.0049,-0.005,0,0.0095,0.011,0.012,0.0131,0.0134,0.0146,0.0137,0.0136,0.0122,0.0106,0.0086,0.0053,0.0024,0.0016,-0.0002,-0.0025,-0.0049,-0.006,-0.0079,-0.007,-0.0123,-0.0132,-0.0045,-0.0046,-0.0047,-0.0047,0,0,0.0112,0.0138,0.0142,0.0157,0.016,0.0168,0.0177,0.0174,0.0174,0.0151,0.0142,0.0109,0.0078,0.006,0.0031,-0.0004,-0.0047,-0.0033,-0.0037,-0.0079,-0.0149,-0.0138,-0.0147,-0.0061,-0.0063,-0.0063,-0.018,0,0.014,0.0181,0.0186,0.0221,0.0238,0.0227,0.024,0.0231,0.0212,0.0198,0.0151,0.0132,0.01,0.0087,0.0046,-0.0022,-0.0067,-0.0015,-0.0155,-0.0159,-0.0147,-0.0155,-0.0067,-0.0187,-0.0189,-0.0191,-0.0192,0,0.0169,0.0194,0.0236,0.0267,0.0274,0.029,0.0295,0.0307,0.0277,0.0259,0.022,0.0178,0.0125,0.0099,-0.0023,0.0012,-0.0066,-0.0124,-0.013,-0.0146,-0.0163,-0.0199,-0.0208,-0.0207,-0.0205,-0.0204,-0.0203,0,0.0181,0.0228,0.0263,0.0275,0.0306,0.0321,0.0334,0.032,0.0335,0.0295,0.0287,0.0208,0.0174,0.0072,-0.0043,-0.0037,-0.0185,-0.0193,-0.0264,-0.0265,-0.0265,-0.0262,-0.0291,-0.0291,-0.0291,-0.0291,-0.029,0,0.0205,0.0232,0.0276,0.0296,0.0346,0.035,0.0389,0.0386,0.0379,0.04,0.0323,0.0309,0.0165,0.0069,-0.0041,-0.0176,-0.0189,-0.0268,-0.0293,-0.0239,-0.0232,-0.0271,-0.0267,-0.0295,-0.0294,-0.0293,-0.0292,0,0.0207,0.0234,0.0284,0.0333,0.0355,0.039,0.0445,0.0478,0.0452,0.0474,0.0466,0.0371,0.0252,0.01,-0.0076,-0.0166,-0.0299,-0.0349,-0.0287,-0.0306,-0.0356,-0.0348,-0.0441,-0.0441,-0.0442,-0.0442,-0.0443,0,0.0213,0.0242,0.0319,0.0367,0.0395,0.0452,0.051,0.0519,0.0554,0.0522,0.0541,0.042,0.0346,0.0106,-0.0065,-0.0292,-0.0319,-0.0404,-0.0376,-0.0355,-0.0372,-0.0363,-0.0354,-0.0443,-0.0444,-0.0444,-0.0444,0,0.0237,0.0264,0.0313,0.0415,0.0489,0.0566,0.0636,0.0661,0.068,0.0651,0.0609,0.0473,0.0329,0.013,-0.0057,-0.0215,-0.0353,-0.041,-0.041,-0.0384,-0.036,-0.0373,-0.0364,-0.0445,-0.0445,-0.0445,-0.0445,0,0.0268,0.0306,0.0386,0.0471,0.057,0.0663,0.0687,0.0735,0.0759,0.0717,0.07,0.0532,0.0419,0.0168,0.0005,-0.0158,-0.0197,-0.025,-0.0259,-0.0259,-0.0168,-0.0108,-0.0143,0,0,0,0,0,0.0311,0.0365,0.0445,0.0549,0.0643,0.0701,0.078,0.0795,0.0801,0.0795,0.0746,0.0619,0.036,0.0237,0.0081,-0.0011,-0.0233,-0.0203,-0.0299,-0.0455,-0.0453,-0.0375,0,0,0,0,0,0,0.0346,0.0428,0.0456,0.0599,0.0676,0.0793,0.0845,0.0848,0.0834,0.0801,0.0672,0.0578,0.0332,0.0459,0.0079,0.0024,-0.0059,-0.0333,-0.0337,-0.0456,-0.0454,-0.0452,-0.0372,0,0,0,0,0]}]]